Location: Équennes
(49.7375°N, 1.9622°E)
Time: 21:49:06
(UTC+00:00)

NOSS 3-3 (A) - Pass Details

Date: 28 January 2023
Orbit: 771 x 1441 km, 63.4° (Epoch: 23 February)

Event Time Altitude Azimuth Distance (km) Brightness Sun altitude
Rises 17:45:43 0° 238° (WSW) 3,358 8.5 -10.7°
Reaches altitude 10° 17:48:05 10° 243° (WSW) 2,487 7.6 -11.1°
Maximum altitude 17:53:44 56° 322° (NW) 1,113 4.5 -11.9°
Drops below altitude 10° 18:00:23 10° 40° (NE) 2,910 6.0 -13.0°
Enters shadow 18:00:33 - 41° (NE) 2,975 6.1 -13.0°
